Regional Weather Roundup
Issued by NWS

Home | Current Version | Previous Version | Graphics & Text | Print | Product List | Glossary On
Versions: 1 2 3 4 5 6 7 8 9 10 11 12 13 14 15 16 17 18 19 20 21 22 23 24 25 26 27 28 29 30 31 32 33 34 35 36 37 38 39 40 41 42 43 44 45 46 47 48 49 50
000
ASUS43 KLOT 242108
RWRIL

ILLINOIS REGIONAL WEATHER ROUNDUP
NATIONAL WEATHER SERVICE CHICAGO/ROMEOVILLE IL
300 PM CST FRI NOV 24 2017

NOTE: "FAIR" INDICATES FEW OR NO CLOUDS BELOW 12,000 FEET WITH NO
SIGNIFICANT WEATHER AND/OR OBSTRUCTIONS TO VISIBILITY.

* THESE STATIONS ARE NOT UNDER NWS QUALITY CONTROL. THEY ALSO MAY NOT
  REPORT WEATHER SUCH AS PRECIPITATION OR FOG.

ILZ001-002-007-009-015-016-024-242200-
NORTHWEST ILLINOIS

CITY           SKY/WX    TMP DP  RH WIND       PRES   REMARKS
MOLINE         SUNNY     71  38  29 SW22G29   29.40F
STERLING*      SUNNY     67  41  38 VRB7      29.43
SAVANNA*       SUNNY     66  39  37 SW12      29.40S
$$

ILZ003-004-008-010-011-017-018-242200-
NORTH CENTRAL ILLINOIS

CITY           SKY/WX    TMP DP  RH WIND       PRES   REMARKS
ROCKFORD       SUNNY     63  40  42 S16       29.43F
FREEPORT*      SUNNY     65  40  39 S23G31    29.41F
ROCHELLE*      SUNNY     61  41  47 S26G32    29.44F
DE KALB*       SUNNY     61  41  48 S25G31    29.46F
PERU*          SUNNY     62  39  41 S22G28    29.48F
$$

ILZ005-006-012>014-019>023-242200-
NORTHEAST ILLINOIS

CITY           SKY/WX    TMP DP  RH WIND       PRES   REMARKS
CHICAGO-OHARE  MOSUNNY   63  38  39 S21G32    29.46F
CHICAGO-MIDWAY MOSUNNY   61  39  44 S20G30    29.49F
AURORA         SUNNY     63  41  44 S18G29    29.47F
LANSING*       SUNNY     59  42  53 S21G31    29.54F
JOLIET*        SUNNY     63  40  43 S20G25    29.51F
WAUKEGAN       SUNNY     63  39  41 S18G30    29.43F
DUPAGE AIRPORT SUNNY     61  40  45 S23G33    29.47F
KANKAKEE*      SUNNY     59  39  48 S17G29    29.57F
WHEELING       SUNNY     64  39  39 S20G31    29.47F
MORRIS*        SUNNY     62  40  43 S21G28    29.49F
ROMEOVILLE*    SUNNY     61  40  45 S20G31    29.50F
NORTHERLY ISL    N/A     60  36  40 S16         N/A
$$

LMZ740>746-242200-
SOUTHERN LAKE MICHIGAN

STATION/POSITION SKY/WX   TEMP    WIND        PRES    VSBY  WAVE
                          AIR SEA DIR/SP/G                  HT/PER
                          (F)     (DEG/KT/KT) (MB)    (MI)  (FT/S)
SOUTHERN BUOY              50 47  180/ 25/ 29  998.7          7/ 6
HARRISON CRIB              58     190/ 30/ 33   N/A
BURNHAM HARBOR             60     170/ 13/ 24   N/A
CALUMET HARBOR             59     180/ 18/ 26  998.8F
BURNS HARBOR               59     180/ 16/ 25 1001.0F
MICHIGAN CITY              58     160/ 16/ 20   N/A
$$

ILZ025>027-034>036-040-047-049-050-058-095>099-242200-
WEST-CENTRAL ILLINOIS

CITY           SKY/WX    TMP DP  RH WIND       PRES   REMARKS
QUINCY         SUNNY     71  38  29 S21G29    29.51F
GALESBURG*     SUNNY     70  41  34 S23G31    29.47S
MACOMB*        SUNNY     71  38  29 SW17G30   29.50F
JACKSONVILLE*  SUNNY     69  38  31 MISG      29.56F
PITTSFIELD*    SUNNY     73  38  28 S18       29.56F
$$

ILZ028>032-037-038-041>044-048-051>054-059>061-242200-
CENTRAL ILLINOIS

CITY           SKY/WX    TMP DP  RH WIND       PRES   REMARKS
PONTIAC        SUNNY     64  40  42 S23G31    29.53F
BLOOMINGTON    SUNNY     62  41  46 S23       29.55F
DECATUR        SUNNY     62  39  42 S17G24    29.62F
PEORIA         SUNNY     67  39  35 S18G30    29.51F
LACON*         SUNNY     65  39  38 S14G24    29.48S
LINCOLN*       SUNNY     65  42  43 S15G25    29.56F
SPRINGFIELD    SUNNY     68  39  34 S22G32    29.57F
TAYLORVILLE    SUNNY     64  41  44 S21       29.62F
$$

ILZ033-039-045-046-055>057-062-063-242200-
EAST-CENTRAL ILLINOIS

CITY           SKY/WX    TMP DP  RH WIND       PRES   REMARKS
CHAMPAIGN      SUNNY     60  38  43 S22G33    29.62F
DANVILLE*      SUNNY     56  37  48 S15G23    29.62F
RANTOUL*       SUNNY     61  43  51 S23       29.61F
MATTOON        SUNNY     57  37  47 S17G25    29.66F
PARIS*         SUNNY     58  39  50 S16       29.70F
$$

ILZ079-100>102-242200-
SOUTHWEST ILLINOIS

CITY           SKY/WX    TMP DP  RH WIND       PRES   REMARKS
ALTON          MOSUNNY   70  43  37 S12G17    29.63F
BELLEVILLE     SUNNY     68  37  32 S15G23    29.65F
CAHOKIA*       SUNNY     72  35  25 S12G22    29.64F
SPARTA*        SUNNY     61  36  38 S17G25    29.71F
$$

ILZ064>066-069>071-074>076-080>082-084>086-088>090-092>094-242200-
SOUTH-CENTRAL ILLINOIS

CITY           SKY/WX    TMP DP  RH WIND       PRES   REMARKS
CARBONDALE     SUNNY     63  35  35 S17       29.75F
CAIRO*         SUNNY     62  37  39 S14       29.80F
EFFINGHAM*     SUNNY     64  38  38 SE12G21   29.70F
MARION         MOSUNNY   63  34  34 S14       29.77F
MT. VERNON     SUNNY     62  36  37 S15       29.73F
CENTRALIA*     SUNNY     64  38  37 S13G25    29.69F
SALEM*         SUNNY     65  34  31 S16       29.69F
METROPOLIS*    SUNNY     62  34  34 S10       29.82F
$$

ILZ067-068-072-073-078-083-087-091-242200-
SOUTHEAST ILLINOIS

CITY           SKY/WX    TMP DP  RH WIND       PRES   REMARKS
LAWRENCEVILLE  SUNNY     58  36  43 S18       29.76F
FLORA*         SUNNY     63  37  38 S16G23    29.72F
FAIRFIELD*     SUNNY     63  35  36 S3        29.73F
HARRISBURG*    SUNNY     62  35  37 S15       29.78F
ROBINSON*      SUNNY     57  34  41 S15G21    29.74F
CARMI*         SUNNY     62  36  37 S16       29.77F
$$

ABBREVIATIONS USED IN REMARKS
   TC - TEMPERATURE IN CELSIUS
  WCI - WIND CHILL INDEX
   HX - HEAT INDEX
  VSB - VISIBILITY
$$





USA.gov is the U.S. government's official web portal to all federal, state and local government web resources and services.